Location: Newark
(55.7681°N, 37.7103°E)
Time: 07:28:57
(UTC+00:00)

N. Korean satellite - Pass Details

Date: 30 October 2019
Orbit: 456 x 506 km, 97.2° (Epoch: 21 November)

Event Time Altitude Azimuth Distance (km) Brightness Sun altitude
Rises 02:03:40 0° 31° (NNE) 2,593 10.8 -21.0°
Reaches altitude 10° 02:07:28 10° 72° (ENE) 1,714 10.5 -20.4°
Maximum altitude 02:08:17 11° 85° (E) 1,679 10.5 -20.3°
Drops below altitude 10° 02:09:05 10° 97° (E) 1,715 10.5 -20.2°
Sets 02:12:53 0° 138° (SE) 2,599 10.8 -19.7°
